Weather History for Stanley, ND

Change the Weather History Date:

Saturday, November 2, 2013

  Actual Average (KMOT) Record (KMOT)
Temperature  
Mean Temperature 37 °F 36 °F  
Max Temperature 51 °F 45 °F 74 °F (1965)
Min Temperature 23 °F 27 °F -9 °F (1935)
Degree Days  
Heating Degree Days 28 29  
Month to date heating degree days 57  
Since 1 July heating degree days 1017  
Cooling Degree Days 0 0  
Month to date cooling degree days 0  
Year to date cooling degree days 445  
Moisture  
Dew Point 26 °F    
Average Humidity 71    
Maximum Humidity 100    
Minimum Humidity 28    
Precipitation  
Precipitation 0.00 in 0.03 in 0.25 in (1995)
Month to date precipitation 0.06  
Year to date precipitation 16.12  
Sea Level Pressure  
Sea Level Pressure 29.91 in    
Wind  
Wind Speed 9 mph (SSW)    
Max Wind Speed 16 mph    
Max Gust Speed 22 mph    
Visibility 10 miles    
Events      
T = Trace of Precipitation, MM = Missing Value Source: NWS Daily Summary

Daily Weather History Graph

Daily Weather History Graph

Search for Another Location

Airport:

Trip Planner

Search our weather history database for the weather conditions in past years. The results will help you decide how hot, cold, wet, or windy it might be!

Date:

Astronomy

Nov. 02, 2013 Rise Set
Actual Time 8:37 AM CDT 6:28 PM CDT
Civil Twilight 8:04 AM CDT 7:01 PM CDT
Nautical Twilight 7:27 AM CDT 7:38 PM CDT
Astronomical Twilight 6:51 AM CDT 8:14 PM CDT
Moon 7:33 AM CDT (11/2) 6:02 PM CDT (11/2)
Length of Visible Light 10h 56m
Length of Day
9h 51m
Waning Crescent, 1% of the Moon is Illuminated
Nov 2
Waning Crescent
Nov 3
New
Nov 9
First Quarter
Nov 17
Full
Nov 25
Last Quarter

Hourly Weather History & Observations

Time (CDT) Temp. Windchill Dew Point Humidity Pressure Visibility Wind Dir Wind Speed Gust Speed Precip Events Conditions
12:15 AM 28.4 °F 20.4 °F 28.4 °F 100% 29.97 in 10.0 mi WNW 8.1 mph - N/A   Clear
12:35 AM 28.4 °F 19.7 °F 28.4 °F 100% 29.97 in 10.0 mi WNW 9.2 mph - N/A   Clear
12:55 AM 28.4 °F 19.1 °F 28.4 °F 100% 29.98 in 10.0 mi WNW 10.4 mph - N/A   Clear
1:15 AM 28.4 °F 19.1 °F 28.4 °F 100% 29.98 in 10.0 mi WNW 10.4 mph - N/A   Clear
1:35 AM 30.2 °F 21.3 °F 28.4 °F 93% 29.98 in 10.0 mi WNW 10.4 mph - N/A   Clear
1:55 AM 28.4 °F 19.7 °F 28.4 °F 100% 29.99 in 10.0 mi WNW 9.2 mph - N/A   Clear
2:15 AM 28.4 °F 19.1 °F 28.4 °F 100% 29.99 in 10.0 mi WNW 10.4 mph - N/A   Clear
2:35 AM 28.4 °F 19.7 °F 28.4 °F 100% 30.00 in 10.0 mi WNW 9.2 mph - N/A   Clear
2:55 AM 28.4 °F 19.1 °F 28.4 °F 100% 30.00 in 10.0 mi WNW 10.4 mph - N/A   Clear
3:15 AM 30.2 °F 21.3 °F 28.4 °F 93% 30.00 in 10.0 mi WNW 10.4 mph - N/A   Clear
3:35 AM 28.4 °F 20.4 °F 28.4 °F 100% 30.00 in 10.0 mi WNW 8.1 mph - N/A   Clear
3:55 AM 26.6 °F 18.2 °F 26.6 °F 100% 30.00 in 10.0 mi WNW 8.1 mph - N/A   Clear
4:15 AM 28.4 °F 18.5 °F 28.4 °F 100% 30.00 in 10.0 mi WNW 11.5 mph - N/A   Clear
4:35 AM 28.4 °F 19.7 °F 28.4 °F 100% 30.00 in 10.0 mi WNW 9.2 mph - N/A   Clear
4:55 AM 26.6 °F 17.5 °F 26.6 °F 100% 30.00 in 10.0 mi WNW 9.2 mph - N/A   Clear
5:15 AM 26.6 °F 18.2 °F 26.6 °F 100% 30.00 in 10.0 mi WNW 8.1 mph - N/A   Clear
5:35 AM 26.6 °F 19.1 °F 26.6 °F 100% 30.00 in 10.0 mi NNW 6.9 mph - N/A   Clear
5:55 AM 26.6 °F 17.5 °F 26.6 °F 100% 30.00 in 10.0 mi WNW 9.2 mph - N/A   Clear
6:15 AM 24.8 °F 16.9 °F 24.8 °F 100% 30.00 in 10.0 mi West 6.9 mph - N/A   Clear
6:35 AM 24.8 °F 16.1 °F 24.8 °F 100% 30.00 in 10.0 mi West 8.1 mph - N/A   Clear
6:55 AM 24.8 °F 19.1 °F 24.8 °F 100% 30.00 in 10.0 mi WSW 4.6 mph - N/A   Clear
7:15 AM 24.8 °F 20.5 °F 24.8 °F 100% 30.00 in 10.0 mi SW 3.5 mph - N/A   Clear
7:35 AM 26.6 °F 22.6 °F 26.6 °F 100% 29.99 in 10.0 mi West 3.5 mph - N/A   Clear
7:55 AM 26.6 °F 21.2 °F 26.6 °F 100% 29.99 in 10.0 mi SW 4.6 mph - N/A   Clear
8:15 AM 24.8 °F 19.1 °F 24.8 °F 100% 29.98 in 10.0 mi West 4.6 mph - N/A   Clear
8:35 AM 23.0 °F 15.8 °F 23.0 °F 100% 29.98 in 10.0 mi WSW 5.8 mph - N/A   Clear
8:55 AM 24.8 °F 20.5 °F 24.8 °F 100% 29.99 in 10.0 mi West 3.5 mph - N/A   Clear
9:15 AM 26.6 °F 22.6 °F 26.6 °F 100% 29.99 in 10.0 mi West 3.5 mph - N/A   Clear
9:35 AM 28.4 °F 24.6 °F 28.4 °F 100% 29.99 in 10.0 mi West 3.5 mph - N/A   Clear
9:55 AM 30.2 °F 26.7 °F 30.2 °F 100% 30.00 in 10.0 mi SW 3.5 mph - N/A   Clear
10:15 AM 32.0 °F - 32.0 °F 100% 30.00 in 10.0 mi Calm Calm - N/A   Clear
10:35 AM 33.8 °F 27.0 °F 33.8 °F 100% 30.00 in 10.0 mi SW 8.1 mph - N/A   Clear
10:55 AM 37.4 °F 32.1 °F 32.0 °F 81% 29.99 in 10.0 mi WSW 6.9 mph - N/A   Clear
12:35 PM 46.4 °F 42.9 °F 32.0 °F 57% 29.98 in 10.0 mi South 6.9 mph - N/A   Clear
12:55 PM 48.2 °F - 28.4 °F 46% 29.97 in 10.0 mi SSW 8.1 mph - N/A   Clear
1:15 PM 50.0 °F - 26.6 °F 40% 29.96 in 10.0 mi SSW 9.2 mph - N/A   Clear
1:35 PM 50.0 °F - 24.8 °F 37% 29.95 in 10.0 mi SSW 10.4 mph - N/A   Clear
1:55 PM 51.8 °F - 24.8 °F 35% 29.93 in 10.0 mi SSW 12.7 mph - N/A   Clear
2:15 PM 51.8 °F - 23.0 °F 33% 29.92 in 10.0 mi South 11.5 mph 16.1 mph N/A   Clear
2:35 PM 51.8 °F - 19.4 °F 28% 29.91 in 10.0 mi South 11.5 mph 18.4 mph N/A   Clear
2:55 PM 51.8 °F - 21.2 °F 30% 29.90 in 10.0 mi SSE 13.8 mph 17.3 mph N/A   Clear
3:15 PM 51.8 °F - 21.2 °F 30% 29.89 in 10.0 mi SSE 11.5 mph - N/A   Clear
3:35 PM 51.8 °F - 23.0 °F 33% 29.88 in 10.0 mi SSE 12.7 mph - N/A   Clear
3:55 PM 51.8 °F - 23.0 °F 33% 29.87 in 10.0 mi SSE 13.8 mph 20.7 mph N/A   Clear
4:15 PM 50.0 °F - 23.0 °F 35% 29.86 in 10.0 mi SSE 12.7 mph - N/A   Clear
4:35 PM 50.0 °F - 23.0 °F 35% 29.85 in 10.0 mi SSE 12.7 mph - N/A   Clear
4:55 PM 51.8 °F - 23.0 °F 33% 29.84 in 10.0 mi SE 16.1 mph 19.6 mph N/A   Clear
5:15 PM 50.0 °F - 23.0 °F 35% 29.83 in 10.0 mi SSE 15.0 mph 18.4 mph N/A   Clear
5:35 PM 48.2 °F - 24.8 °F 40% 29.83 in 10.0 mi SSE 11.5 mph - N/A   Clear
5:55 PM 46.4 °F 41.9 °F 24.8 °F 43% 29.82 in 10.0 mi SSE 9.2 mph - N/A   Clear
6:15 PM 44.6 °F 40.2 °F 24.8 °F 46% 29.82 in 10.0 mi SSE 8.1 mph - N/A   Clear
6:35 PM 44.6 °F 39.7 °F 24.8 °F 46% 29.82 in 10.0 mi SE 9.2 mph - N/A   Clear
6:55 PM 44.6 °F 39.2 °F 24.8 °F 46% 29.81 in 10.0 mi SE 10.4 mph - N/A   Partly Cloudy
7:15 PM 44.6 °F 39.2 °F 24.8 °F 46% 29.80 in 10.0 mi SE 10.4 mph - N/A   Mostly Cloudy
7:35 PM 44.6 °F 38.4 °F 24.8 °F 46% 29.80 in 10.0 mi SE 12.7 mph - N/A   Overcast
7:55 PM 44.6 °F 38.1 °F 24.8 °F 46% 29.79 in 10.0 mi SE 13.8 mph - N/A   Overcast
8:15 PM 42.8 °F 35.8 °F 26.6 °F 53% 29.79 in 10.0 mi SE 13.8 mph - N/A   Overcast
8:35 PM 42.8 °F 36.2 °F 26.6 °F 53% 29.79 in 10.0 mi SE 12.7 mph - N/A   Overcast
8:55 PM 42.8 °F 37.0 °F 26.6 °F 53% 29.78 in 10.0 mi SE 10.4 mph - N/A   Overcast
9:15 PM 42.8 °F 35.8 °F 26.6 °F 53% 29.77 in 10.0 mi SE 13.8 mph - N/A   Mostly Cloudy
9:35 PM 44.6 °F 38.4 °F 26.6 °F 49% 29.76 in 10.0 mi SE 12.7 mph - N/A   Overcast
9:55 PM 42.8 °F 36.2 °F 28.4 °F 57% 29.75 in 10.0 mi SE 12.7 mph 17.3 mph N/A   Overcast
10:15 PM 44.6 °F 37.4 °F 28.4 °F 53% 29.74 in 10.0 mi SE 16.1 mph 21.9 mph N/A   Overcast
10:35 PM 42.8 °F 35.1 °F 28.4 °F 57% 29.73 in 10.0 mi SE 16.1 mph 21.9 mph N/A   Mostly Cloudy
10:55 PM 41.0 °F 32.8 °F 28.4 °F 61% 29.73 in 10.0 mi SE 16.1 mph - N/A   Partly Cloudy
11:15 PM 41.0 °F 33.5 °F 28.4 °F 61% 29.72 in 10.0 mi ESE 13.8 mph - N/A   Partly Cloudy
11:35 PM 39.2 °F 31.6 °F 26.6 °F 61% 29.71 in 10.0 mi ESE 12.7 mph - N/A   Partly Cloudy
11:55 PM 39.2 °F 31.2 °F 28.4 °F 65% 29.70 in 10.0 mi SE 13.8 mph - N/A   Clear